CZ-6A DEB, 54921

Orbit data source: Space-Track

CZ-6A DEB, 54921 is space debris in SSO originally from a launch on Fri, 11 Nov 2022 UTC launched from the Taiyaun Space Center, China (TSC). Debris objects in space refer to the collection of defunct objects orbiting the Earth. Examples of debris include non-operational satellites, rocket bodies, and fragments generated from explosions, collisions, or faulty payload assembly.

Loading next visibility...
Identifier
54921, 2022-151RJ
Orbit
SSO
Country
Flag of CNCN / PRC
Related business
Manufacturer
SAST
Mission
Spacecraft
Bus & Motor
Unknown
Mass
Unknown
Launch date (UTC)
2022-11-11 (4 years ago)
Launch vehicle
Unknown
Launch site
Taiyaun Space Center, China (TSC)
Object type
Payload
Rocket body
Debris
Shape & HBR
Unknown shape, 0.1 m
Radar Cross Section
Small (<0.1 m²)

Expand to show TLE details & history
Last TLE update: 3 days ago

TLE from 3 days ago
0 CZ-6A DEB
1 54921U 22151RJ  26170.63396833  .00000364  00000-0  10920-3 0  9997
2 54921  98.5426 208.7211 0117377 305.1286  53.8949 14.45083770186067
Epoch: 2026-06-19T15:12Z
TLE epoch observation values (Epoch: 2026-06-19T15:12:54.863Z)
Latitude
-0°
Longitude
72.63237°
Altitude
696.097 km
Speed
7.534 km/s
True Right ascension
13h 54m 53s
True Declination
0° 00' 00"
Sunlit
Object was in full shadow at epoch
Visualization orbit readout
Latitude
Unknown
Longitude
Unknown
Altitude
Unknown
Speed
Unknown
Apparent Right ascension
Unknown
Apparent Declination
Unknown
Sunlit
N/A
Visualization observer readout
Local Sidereal Time
21:52:13
Azimuth
Unknown
Elevation
Unknown
Doppler factor
Unknown
Orbital elements
Apogee altitude
822.405 km
Perigee altitude
655.33 km
Semi-major axis
7,117.004 km
Eccentricity
0.01174
Inclination
98.5426°
RAAN
208.7211°
Arg. of periapsis
305.1286°
True anomaly
54.99102°
Mean anomaly
53.8949°
Eccentric anomaly
54.44201°
Mean motion
3.61491 °/min
Orbital period
99.59 mins
BSTAR
0.0001092
Loading maneuver chart data...
Computing Atmospheric mass density...
Loading historical data...
Loading historical data...
Loading historical data...
Loading historical data...
Loading historical data...
Loading historical data...
Loading historical data...

Documentation

Showing up to 5 results
|